Location: El Álamo
(40.2307°N, 3.9945°W)
Time: 04:40:22
(UTC+00:00)

Cosmos 1570 Rocket - Pass Details

Date: 19 May 2025
Orbit: 759 x 785 km, 74.1° (Epoch: 23 June)

Event Time Altitude Azimuth Distance (km) Brightness Sun altitude
Exits shadow 21:19:38 17° 187° (S) 1,877 5.6 -17.6°
Maximum altitude 21:23:43 71° 106° (ESE) 813 3.9 -18.1°
Drops below altitude 10° 21:28:57 10° 24° (NNE) 2,320 6.8 -18.8°
Sets 21:31:21 0° 22° (NNE) 3,256 7.6 -19.1°
